[[{"header":{"parameterUnit":"m.s-1","parameterCategory":1,"la1":30.2991,"la2":30.254,"lo1":-89.0895,"lo2":-89.0444,"dy":0.0017,"dx":0.0017,"nx":28,"ny":28,"refTime":"2025-08-31T09:00:00:Z","depth":0,"parameterNumber":2,"parameterNumberName":"U-component_of_WINDS"},"data":[0,0,0,0,0,0,0,0,0,0,0,0,0,0,0,0,0,0,0,0,0,0,0,0,0,0,0,0,0,0,0,0,0,0,0,0,0,0,0,0,0,0,0,0,0,0,0,0,0,0,0,0,0,0,0,0,0,0,-3.5019,-3.502,0,-3.5163,-3.5165,-3.5167,-3.5178,-3.5176,-3.5175,-3.5173,-3.5327,-3.5333,-3.5338,0,0,0,0,0,0,0,0,0,0,0,0,0,-3.4756,-3.4761,-3.5018,-3.502,-3.5022,-3.5163,-3.5165,-3.5167,-3.5178,-3.5176,-3.5174,-3.5173,-3.5325,-3.5332,-3.5339,0,0,0,0,0,0,0,0,0,0,0,0,0,-3.4883,-3.4763,-3.5018,-3.5044,-3.5048,-3.5163,-3.5165,-3.5168,-3.5179,-3.5176,-3.5174,-3.5172,-3.5323,-3.5331,-3.534,-3.5439,0,0,-3.5365,-3.5369,0,0,0,0,0,0,0,0,-3.4876,-3.4892,-3.5039,-3.5043,-3.5047,-3.515,-3.5129,-3.5259,-3.5179,-3.5129,-3.5173,-3.5171,-3.5271,-3.5283,-3.5316,-3.5447,-3.5453,-3.5366,-3.5371,-3.5375,-3.5377,0,0,0,0,0,0,0,-3.4867,-3.4886,-3.5076,-3.5041,-3.5046,-3.5051,-3.5066,-3.5154,-3.5212,-3.5134,-3.5135,-3.5151,-3.5273,-3.5308,-3.532,-3.5455,-3.5366,-3.5373,-3.5378,-3.5382,-3.5677,-3.568,0,0,0,0,0,0,-3.4852,-3.4879,-3.5071,-3.508,-3.4954,-3.5057,-3.5074,-3.512,-3.5211,-3.5222,-3.5153,-3.5151,-3.5295,-3.531,-3.5325,-3.5449,-3.5375,-3.5383,-3.5387,-3.5674,-3.5678,-3.5681,0,0,0,0,0,0,-3.4847,-3.4869,-3.5065,-3.498,-3.5005,-3.5064,-3.5115,-3.5124,-3.5159,-3.5226,-3.5237,-3.5178,-3.5293,-3.5313,-3.5411,-3.5455,-3.5386,-3.5394,-3.5671,-3.5675,-3.5679,-3.5698,0,0,0,0,0,0,-3.4839,-3.4867,-3.4905,-3.4981,-3.501,-3.5148,-3.5118,-3.5128,-3.5173,-3.5172,-3.5252,-3.5263,-3.5293,-3.5398,-3.5419,-3.5465,-3.54,-3.5667,-3.5673,-3.5678,-3.5694,-3.5702,-3.571,0,0,0,0,0,-3.483,-3.4905,-3.4906,-3.493,-3.5057,-3.515,-3.5167,-3.5198,-3.5176,-3.5215,-3.5258,-3.5261,-3.5446,-3.5408,-3.5432,-3.5481,-3.5665,-3.5671,-3.5677,-3.569,-3.5701,-3.5709,0,0,0,0,0,0,-3.4835,-3.4916,-3.4918,-3.502,-3.5078,-3.5152,-3.5202,-3.5208,-3.5275,-3.5271,-3.5308,-3.5326,-3.5423,-3.5461,-3.5418,-3.5583,-3.5553,-3.5565,-3.5555,-3.5565,-3.5573,-3.5563,-3.5407,0,0,0,0,0,-3.4847,-3.4914,-3.4981,-3.5065,-3.5094,-3.5142,-3.5184,-3.5203,-3.5265,-3.529,-3.534,-3.5402,-3.5474,-3.5522,-3.5592,-3.5698,-3.5717,-3.5744,-3.5752,-3.5758,-3.5768,-3.583,-3.5843,-3.5701,-3.5701,-3.5701,0,0,-3.4875,-3.4927,-3.4968,-3.5067,-3.5114,-3.5185,-3.5163,-3.5238,-3.5292,-3.5302,-3.5398,-3.5436,-3.5508,-3.5611,-3.5659,-3.5646,-3.5811,-3.5766,-3.577,-3.5778,-3.5837,-3.5851,-3.5863,-3.5706,-3.5705,-3.5704,0,0,-3.4962,-3.5007,-3.5082,-3.5129,-3.52,-3.5232,-3.5249,-3.5323,-3.5348,-3.5444,-3.5454,-3.5518,-3.5641,-3.5692,-3.5734,-3.5839,-3.5845,-3.5861,-3.5904,-3.5963,-3.5974,-3.5984,-3.6024,-3.6038,-3.587,-3.587,-3.587,0,-3.4988,-3.5093,-3.512,-3.5195,-3.524,-3.525,-3.5328,-3.5373,-3.5463,-3.5495,-3.5478,-3.5633,-3.5682,-3.5798,-3.5823,-3.5856,-3.588,-3.5853,-3.597,-3.598,-3.599,-3.6029,-3.6043,-3.5872,-3.5872,-3.5872,-3.5871,0,-3.5122,-3.5195,-3.5247,-3.5333,-3.5383,-3.5459,-3.55,-3.5547,-3.5561,-3.5595,-3.5693,-3.5752,-3.5834,-3.5863,-3.5878,-3.5981,-3.5971,-3.5961,-3.5933,-3.6005,-3.6042,-3.6057,-3.5874,-3.5874,-3.5873,-3.5873,0,0,-3.522,-3.5318,-3.5337,-3.5377,-3.5455,-3.5512,-3.5589,-3.5668,-3.5709,-3.577,-3.5838,-3.5941,-3.5932,-3.598,-3.6001,-3.6052,-3.6134,-3.6037,-3.6039,-3.6055,-3.6255,-3.6264,-3.628,-3.6137,-3.614,-3.6142,-3.625,0,-3.5317,-3.5452,-3.5479,-3.5598,-3.5666,-3.5676,-3.5743,-3.5799,-3.5833,-3.5897,-3.5934,-3.6008,-3.599,-3.6019,-3.607,-3.6113,-3.6175,-3.6105,-3.6203,-3.6206,-3.6187,-3.6299,-3.6309,-3.6408,-3.6264,-3.6267,-3.6268,0,-3.545,-3.5513,-3.5638,-3.5707,-3.5737,-3.5796,-3.5871,-3.5931,-3.5996,-3.6017,-3.6069,-3.6084,-3.6166,-3.6131,-3.6246,-3.6198,-3.6239,-3.6266,-3.627,-3.6284,-3.6244,-3.6318,-3.644,-3.6456,-3.6291,-3.6289,-3.6288,0,-3.5512,-3.5628,-3.5718,-3.5751,-3.5833,-3.5875,-3.5912,-3.5973,-3.6019,-3.6085,-3.6115,-3.619,-3.6232,-3.6291,-3.6326,-3.6296,-3.6439,-3.6406,-3.6461,-3.6461,-3.6494,-3.6492,-3.6627,-3.6515,-3.6514,-3.6514,-3.6514,0,-3.562,-3.5697,-3.5747,-3.5802,-3.5889,-3.5919,-3.6004,-3.6041,-3.6095,-3.616,-3.6172,-3.6233,-3.6274,-3.6341,-3.6369,-3.6462,-3.648,-3.6501,-3.6508,-3.6502,-3.6499,-3.6532,-3.6527,-3.6518,-3.6517,-3.6517,-3.6516,0,-3.5706,-3.5741,-3.5841,-3.5909,-3.5928,-3.5989,-3.6049,-3.6105,-3.6137,-3.6219,-3.624,-3.6292,-3.6371,-3.6411,-3.651,-3.6529,-3.6634,-3.6635,-3.6612,-3.6616,-3.667,-3.6665,-3.6833,-3.6858,-3.6726,-3.6727,-3.6728,0,-3.5774,-3.5833,-3.5907,-3.595,-3.5987,-3.6056,-3.6103,-3.6134,-3.6183,-3.626,-3.6307,-3.6386,-3.6451,-3.6578,-3.6626,-3.6703,-3.6708,-3.6761,-3.672,-3.6712,-3.6713,-3.671,-3.6717,-3.677,-3.6771,-3.6772,-3.6773,0,-3.5893,-3.5907,-3.5972,-3.6044,-3.6098,-3.6157,-3.6215,-3.625,-3.6291,-3.6345,-3.6425,-3.6475,-3.6576,-3.6655,-3.6735,-3.6775,-3.6783,-3.6785,-3.6802,-3.6798,-3.6784,-3.6795,-3.6636,-3.6782,-3.6781,-3.6781,-3.678,-3.678,-3.5974,-3.6027,-3.6088,-3.616,-3.6206,-3.626,-3.6315,-3.6354,-3.642,-3.6504,-3.6518,-3.6604,-3.6668,-3.6775,-3.6817,-3.6886,-3.6875,-3.6899,-3.6906,-3.6912,-3.6916,-3.6769,-3.69,-3.69,-3.69,-3.6899,-3.6899,0,-3.6096,-3.6135,-3.6201,-3.628,-3.6338,-3.6335,-3.6399,-3.6448,-3.6523,-3.658,-3.6643,-3.6736,-3.6813,-3.6867,-3.6945,-3.6991,-3.6996,-3.7011,-3.701,-3.7019,-3.6921,-3.6899,-3.7005,-3.7005,-3.7005,-3.7005,-3.7005,-3.7005,-3.6166,-3.6257,-3.6278,-3.6392,-3.6431,-3.6514,-3.6551,-3.6601,-3.6647,-3.6749,-3.6812,-3.6845,-3.6902,-3.6984,-3.7056,-3.707,-3.71,-3.7115,-3.7129,-3.7037,-3.7026,-3.7015,-3.6996,-3.712,-3.712,-3.7222,-3.7223,-3.7224]},{"header":{"parameterUnit":"m.s-1","parameterCategory":1,"la1":30.2991,"la2":30.254,"lo1":-89.0895,"lo2":-89.0444,"dy":0.0017,"dx":0.0017,"nx":28,"ny":28,"refTime":"2025-08-31T09:00:00:Z","depth":0,"parameterNumber":3,"parameterNumberName":"V-component_of_WINDS"},"data":[0,0,0,0,0,0,0,0,0,0,0,0,0,0,0,0,0,0,0,0,0,0,0,0,0,0,0,0,0,0,0,0,0,0,0,0,0,0,0,0,0,0,0,0,0,0,0,0,0,0,0,0,0,0,0,0,0,0,-3.1829,-3.1829,0,-3.1779,-3.1779,-3.1778,-3.169,-3.1689,-3.1687,-3.1685,-3.1636,-3.1636,-3.1636,0,0,0,0,0,0,0,0,0,0,0,0,0,-3.185,-3.185,-3.1829,-3.1829,-3.1828,-3.1779,-3.1779,-3.1778,-3.1691,-3.1688,-3.1686,-3.1685,-3.1636,-3.1636,-3.1636,0,0,0,0,0,0,0,0,0,0,0,0,0,-3.1825,-3.185,-3.1829,-3.1778,-3.1773,-3.178,-3.1779,-3.1778,-3.1691,-3.1688,-3.1686,-3.1684,-3.1636,-3.1636,-3.1636,-3.1689,0,0,-3.1637,-3.1637,0,0,0,0,0,0,0,0,-3.1827,-3.1824,-3.1787,-3.1782,-3.1776,-3.1738,-3.1768,-3.1748,-3.1692,-3.1722,-3.1685,-3.1682,-3.1672,-3.1669,-3.1665,-3.1686,-3.1684,-3.1637,-3.1638,-3.1638,-3.1638,0,0,0,0,0,0,0,-3.1828,-3.1826,-3.181,-3.1786,-3.178,-3.1759,-3.1752,-3.1764,-3.1712,-3.1719,-3.1713,-3.1708,-3.1669,-3.1665,-3.1664,-3.1683,-3.1637,-3.1638,-3.1638,-3.1638,-3.1745,-3.1748,0,0,0,0,0,0,-3.1837,-3.1828,-3.1811,-3.1808,-3.1796,-3.176,-3.1753,-3.1753,-3.1712,-3.1703,-3.171,-3.1704,-3.1666,-3.1663,-3.1662,-3.172,-3.1638,-3.1638,-3.1638,-3.1742,-3.1746,-3.1749,0,0,0,0,0,0,-3.1838,-3.1837,-3.1813,-3.1816,-3.1812,-3.1763,-3.1763,-3.1754,-3.175,-3.1705,-3.1695,-3.1716,-3.1664,-3.1661,-3.1682,-3.1717,-3.1638,-3.1639,-3.1739,-3.1743,-3.1747,-3.1839,0,0,0,0,0,0,-3.1839,-3.1838,-3.1857,-3.1817,-3.1812,-3.1835,-3.1765,-3.1754,-3.1751,-3.1742,-3.1708,-3.17,-3.1662,-3.1682,-3.1683,-3.1717,-3.1639,-3.1736,-3.1741,-3.1746,-3.1832,-3.1845,-3.1856,0,0,0,0,0,-3.184,-3.1885,-3.1858,-3.1857,-3.1835,-3.1837,-3.1834,-3.1789,-3.1754,-3.1773,-3.1744,-3.1701,-3.1713,-3.1685,-3.1685,-3.1719,-3.1734,-3.174,-3.1745,-3.1827,-3.1843,-3.1856,0,0,0,0,0,0,-3.193,-3.1879,-3.1848,-3.1881,-3.1864,-3.1822,-3.1845,-3.1807,-3.18,-3.1792,-3.1737,-3.173,-3.1759,-3.1741,-3.1711,-3.1768,-3.1717,-3.1723,-3.1779,-3.1793,-3.1805,-3.1809,-3.1639,0,0,0,0,0,-3.1953,-3.1959,-3.1914,-3.1948,-3.194,-3.1895,-3.1894,-3.1861,-3.1841,-3.1833,-3.1806,-3.1789,-3.1789,-3.179,-3.1787,-3.1829,-3.1821,-3.1853,-3.1865,-3.1875,-3.1881,-3.1902,-3.1916,-3.1768,-3.1768,-3.1768,0,0,-3.2002,-3.1975,-3.1982,-3.1965,-3.1948,-3.1956,-3.1889,-3.19,-3.1905,-3.1835,-3.1854,-3.1833,-3.181,-3.1842,-3.1855,-3.1828,-3.192,-3.1882,-3.1891,-3.1891,-3.191,-3.1924,-3.1936,-3.1772,-3.1771,-3.1771,0,0,-3.2095,-3.2075,-3.2101,-3.2085,-3.2059,-3.2028,-3.2035,-3.1998,-3.1982,-3.1999,-3.1947,-3.1953,-3.1954,-3.194,-3.1933,-3.2021,-3.1982,-3.2022,-3.2085,-3.2106,-3.2118,-3.2128,-3.216,-3.2172,-3.2028,-3.2028,-3.2029,0,-3.2159,-3.2168,-3.2119,-3.2133,-3.2128,-3.2064,-3.209,-3.2077,-3.2053,-3.205,-3.202,-3.2021,-3.2001,-3.2029,-3.2051,-3.2047,-3.2053,-3.2026,-3.212,-3.213,-3.2139,-3.2169,-3.2181,-3.2034,-3.2033,-3.2032,-3.2032,0,-3.2249,-3.2256,-3.228,-3.2258,-3.2254,-3.2275,-3.2229,-3.2232,-3.2199,-3.2172,-3.2191,-3.2165,-3.2156,-3.216,-3.2128,-3.2184,-3.2168,-3.213,-3.2078,-3.2159,-3.2186,-3.2197,-3.2041,-3.2039,-3.2038,-3.2036,0,0,-3.2397,-3.2347,-3.2357,-3.2346,-3.2313,-3.2318,-3.2336,-3.2327,-3.2331,-3.2316,-3.233,-3.2332,-3.2297,-3.229,-3.2256,-3.2274,-3.2347,-3.2234,-3.2232,-3.2256,-3.2407,-3.2436,-3.245,-3.232,-3.2322,-3.2323,-3.2409,0,-3.2484,-3.251,-3.2466,-3.2504,-3.251,-3.245,-3.2465,-3.2447,-3.2422,-3.2424,-3.2396,-3.2399,-3.2352,-3.2347,-3.2363,-3.2335,-3.2376,-3.2328,-3.2333,-3.2334,-3.2341,-3.2464,-3.2495,-3.2578,-3.2419,-3.2421,-3.2422,0,-3.2588,-3.2578,-3.2616,-3.2582,-3.2583,-3.2597,-3.2586,-3.2589,-3.2567,-3.2548,-3.2539,-3.2499,-3.2514,-3.2463,-3.2484,-3.2452,-3.2452,-3.2438,-3.244,-3.2439,-3.2384,-3.2468,-3.2603,-3.2616,-3.2439,-3.2437,-3.2436,0,-3.2693,-3.269,-3.2712,-3.2704,-3.2665,-3.2676,-3.266,-3.2636,-3.2634,-3.2624,-3.2622,-3.2615,-3.2611,-3.2606,-3.2565,-3.2531,-3.2591,-3.2536,-3.2576,-3.2577,-3.2592,-3.2591,-3.2729,-3.259,-3.259,-3.259,-3.259,0,-3.2795,-3.2821,-3.2759,-3.2773,-3.28,-3.2749,-3.2778,-3.2756,-3.2735,-3.2744,-3.2691,-3.2701,-3.2646,-3.2649,-3.2617,-3.264,-3.2638,-3.2623,-3.2615,-3.2629,-3.2631,-3.2628,-3.2622,-3.2593,-3.2592,-3.2592,-3.2591,0,-3.2917,-3.2877,-3.2897,-3.2858,-3.2848,-3.287,-3.2837,-3.2848,-3.2819,-3.2831,-3.2831,-3.2787,-3.2789,-3.2747,-3.274,-3.2719,-3.2756,-3.2737,-3.2763,-3.2757,-3.28,-3.2797,-3.2941,-3.2958,-3.2808,-3.281,-3.2811,0,-3.2985,-3.3004,-3.2966,-3.2968,-3.2955,-3.2959,-3.2956,-3.2907,-3.2906,-3.2883,-3.2898,-3.2895,-3.2891,-3.2896,-3.2864,-3.2859,-3.2839,-3.289,-3.2838,-3.2852,-3.2841,-3.2841,-3.2843,-3.2902,-3.2903,-3.2905,-3.2906,0,-3.311,-3.3089,-3.3087,-3.3078,-3.3076,-3.3067,-3.3055,-3.3059,-3.3006,-3.3008,-3.3009,-3.3006,-3.2999,-3.2997,-3.2986,-3.297,-3.293,-3.2923,-3.2932,-3.2946,-3.2961,-3.2955,-3.2794,-3.292,-3.2918,-3.2917,-3.2917,-3.2916,-3.3208,-3.3221,-3.3197,-3.3197,-3.3182,-3.3172,-3.3181,-3.3153,-3.3153,-3.3144,-3.3115,-3.3121,-3.3099,-3.308,-3.3067,-3.3072,-3.3047,-3.306,-3.3063,-3.3067,-3.3076,-3.296,-3.307,-3.3069,-3.3069,-3.3068,-3.3068,0,-3.3331,-3.3312,-3.3312,-3.3296,-3.3296,-3.3257,-3.3241,-3.3244,-3.325,-3.3233,-3.323,-3.3231,-3.323,-3.3197,-3.3191,-3.3201,-3.3183,-3.3201,-3.3201,-3.3198,-3.3098,-3.3091,-3.3216,-3.3216,-3.3216,-3.3216,-3.3216,-3.3216,-3.3395,-3.3416,-3.3392,-3.3406,-3.3387,-3.3393,-3.3387,-3.3377,-3.3364,-3.3368,-3.3366,-3.3344,-3.3321,-3.3313,-3.331,-3.3301,-3.3302,-3.3327,-3.3311,-3.3219,-3.3205,-3.3191,-3.3184,-3.3327,-3.3327,-3.3411,-3.3411,-3.3412]}]]